Regional Weather Roundup
Issued by NWS

Home | Current Version | Previous Version | Text Only | Print | Product List | Glossary Off
Versions: 1 2 3 4 5 6 7 8 9 10 11 12 13 14 15 16 17 18 19 20 21 22 23 24 25 26 27 28 29 30 31 32 33 34 35 36 37 38 39 40 41 42 43 44 45 46 47 48 49 50

000
ASUS45 KBOU 122210
RWRCO

WEATHER ROUNDUP FOR COLORADO
NATIONAL WEATHER SERVICE DENVER/BOULDER CO
300 PM MST TUE DEC 12 2017

NOTE: "FAIR" INDICATES FEW OR NO CLOUDS BELOW 12000 FEET WITH NO
SIGNIFICANT WEATHER AND/OR OBSTRUCTIONS TO VISIBILITY.

COZ001>005-013-030-031-122300-
...NORTHWEST COLORADO...

CITY           SKY/WX    TMP DP  RH WIND       PRES   REMARKS
CRAIG          FAIR      42  21  43 CALM      30.39F
HAYDEN         FAIR      45  23  42 CALM      30.40F
MEEKER         FAIR      54   7  15 SW5       30.37F
RABBIT EARS PA FAIR      32   9  37 W10G22    30.47F WCI  24
STEAMBOAT SPGS FAIR      42  19  41 CALM      30.40F
WALDEN         FAIR      41  14  33 S9        30.40F
$$

COZ006>008-011-122300-
...WEST CENTRAL VALLEYS...

CITY           SKY/WX    TMP DP  RH WIND       PRES   REMARKS
GRAND JUNCTION FAIR      53  13  20 W3        30.37F
MONTROSE       FAIR      51   9  18 CALM      30.38F
EAGLE          FAIR      42  15  33 CALM      30.44F
RIFLE          FAIR      52  13  21 NW3       30.37F
DELTA          FAIR      54   8  16 CALM      30.38F
NUCLA          FAIR      52   5  15 CALM      30.40F
$$

COZ017>023-064>068-122300-
...SOUTHWEST COLORADO...

CITY           SKY/WX    TMP DP  RH WIND       PRES   REMARKS
DURANGO        FAIR      53   3  13 W7        30.34F
CORTEZ         FAIR      51   3  14 W5        30.36F
PAGOSA SPRINGS FAIR      55  -7   8 S3        30.37F
TELLURIDE      FAIR      53   2  12 W14       30.43F
WOLF CREEK PAS FAIR      39   3  22 SW8       30.57F
$$

COZ009-010-012-014-032>034-037-058>063-122300-
...CENTRAL COLORADO...

CITY           SKY/WX    TMP DP  RH WIND       PRES   REMARKS
ASPEN          FAIR      49  13  23 NW6       30.40F
BUENA VISTA    FAIR      58   5  12 NW10G16   30.32F
COPPER MTN     NOT AVBL
BERTHOUD PASS  FAIR      25  12  58 NW23G31   30.49F WCI  10
COTTONWOOD PAS FAIR      55   0  10 W10G21    30.41F
GUNNISON       FAIR      45   8  22 CALM      30.41F
KREMMLING      FAIR      37  18  44 CALM      30.45F
LEADVILLE      FAIR      44  10  25 NW13G24   30.42
MONARCH PASS   FAIR      36   5  27 SW17G23   30.61F
SALIDA         FAIR      60   4  11 SW10G18   30.37F
SUNLIGHT       FAIR      36   1  23 NW6       30.55F
WILKERSON PASS FAIR      43   0  16 NW9       30.49S
$$

COZ069>075-122300-
...SAN LUIS VALLEY/SANGRE DE CRISTO MOUNTAINS...

CITY           SKY/WX    TMP DP  RH WIND       PRES   REMARKS
ALAMOSA        FAIR      50   3  14 CALM      30.35F
DEL NORTE      FAIR      48   5  17 E3        30.38F
LA VETA PASS   FAIR      43   7  22 SW13        N/A
SAGUACHE       FAIR      48   5  17 S3        30.38F
$$

COZ035-036-038>040-122300-
...NORTHERN COLORADO FRONT RANGE...

CITY           SKY/WX    TMP DP  RH WIND       PRES   REMARKS
DENVER INTL AP FAIR      68  13  12 N7        30.17F
DMNS CITY PARK NOT AVBL
AURORA         MOSUNNY   67  13  12 N5        30.19F
FRONT RANGE AP MOSUNNY   68  14  12 CALM      30.19F
ERIE MUNI ARPT FAIR      65  15  14 N3        30.22F
BOULDER MUN AP FAIR      64  19  17 CALM      30.17F
CENTENNIAL     FAIR      66  16  14 CALM      30.19F
BROOMFIELD     MOSUNNY   66  16  14 W15       30.21S
FORT COLLINS   FAIR      62  19  19 S5        30.17F
LONGMONT       FAIR      67  17  14 CALM      30.19S
$$

COZ041-046-047-076>085-087-088-122300-
...PIKES PEAK/PALMER DIVIDE AND SOUTHERN FOOTHILLS...

CITY           SKY/WX    TMP DP  RH WIND       PRES   REMARKS
COLO. SPRINGS  FAIR      60  11  14 S7        30.23F
A. F. ACADEMY  FAIR      60   7  12 S8        30.23F
SCHRIEVER AFB  FAIR      59   8  13 S5        30.23F
CHEYENNE MTN   FAIR      54   9  16 SE6       30.20F
ELLICOTT         N/A    N/A N/A N/A CALM      30.22F
FALCON         FAIR      59   6  12 S13       30.26F
FORT CARSON    FAIR      61  10  13 SE5       30.21F
LIMON          FAIR      65  15  14 N10       30.18F
MONUMENT HILL  FAIR      59  12  15 N6        30.26F
CANON CITY     FAIR      64  14  14 SE6       30.19F
WALSENBURG     FAIR      68  12  11 SE5       30.22F
TRINIDAD       FAIR      63   9  12 SE5       30.23F
$$

COZ042>045-048>051-090-091-122300-
...NORTHEAST COLORADO...

CITY           SKY/WX    TMP DP  RH WIND       PRES   REMARKS
GREELEY ARPT   FAIR      65  18  16 W6        30.16F
AKRON          FAIR      63  13  14 MISG      30.13F
BURLINGTON     FAIR      66  16  14 NW12      30.14F
WRAY           FAIR      64  14  14 W8        30.11F
YUMA           FAIR      63  16  16 NW8       30.12F
STERLING       FAIR      70  19  14 N10       30.09F
HOLYOKE        FAIR      68  18  14 NW8       30.10F
FORT MORGAN    FAIR      64  12  13 W6        30.15F
$$

COZ086-089-092>099-122300-
...SOUTHEAST COLORADO...

CITY           SKY/WX    TMP DP  RH WIND       PRES   REMARKS
PUEBLO         FAIR      66  10  11 E8        30.17F
LA JUNTA       FAIR      65  12  12 SW8       30.18F
LAMAR          FAIR      65  12  12 W9        30.15F
SPRINGFIELD      N/A     64  14  14 N7        30.19F
$$



USA.gov is the U.S. government's official web portal to all federal, state and local government web resources and services.